Home > Weather > São Paulo > Past weeks

Flag for Brazil Past Weather in São Paulo, São Paulo, Brazil — Yesterday and Last 2 Weeks

Now
55 °F

Fog.


Feels Like: 54 °F
Forecast: 53 / 72 °F
Wind: 7 mph from Southeast

Location: Sao Paulo Airport

Current Time: Jun 25, 2016 at 10:00:35 PM

Latest Report: Jun 25, 2016 at 9:00 PM


Visibility: 3 mi

Pressure: 30.36 "Hg (27.71 "Hg at 765m altitude)

Humidity: 94%

Dew Point: 54 °F

Location of São PauloLocation

Past Weather in São Paulo — Graph

°F

São Paulo Temperature Yesterday

Maximum temperature yesterday: 68 °F (at 1:00 PM)
Minimum temperature yesterday: 52 °F (at 6:00 AM)
Average temperature yesterday: 57 °F

High & Low Weather Summary for the Past Weeks

 TemperatureHumidityPressure
High77 °F (Jun 17, 3:00 PM)94% (Jun 14, 10:00 PM)30.48 "Hg (Jun 14, 10:00 PM)
Low41 °F (Jun 13, 3:00 AM)27% (Jun 12, 2:00 PM)30.12 "Hg (Jun 17, 4:00 PM)
Average57 °F75%30.29 "Hg
* Reported Jun 10 9:00 PM — Jun 25 9:00 PM, São Paulo, Weather by CustomWeather, © 2016

Note: Actual official high and low records may vary slightly from our data, if they occured in-between our weather recording intervals... More about our weather records

Advertising

São Paulo Weather History for the Previous 24 Hours

Scroll right to see more
 ConditionsComfort  
Time TempWeatherWind HumidityBarometerVisibility
9:00 PM
Sat, Jun 25
55 °FFog.7 mph94%30.36 "Hg3 mi
8:00 PM55 °FFog.7 mph94%30.36 "Hg1 mi
7:00 PM57 °FFog.8 mph88%30.36 "Hg3 mi
6:00 PM57 °FFog.12 mph88%30.33 "Hg3 mi
5:00 PM59 °FPassing clouds.10 mph82%30.30 "Hg4 mi
4:00 PM63 °FClear.12 mph77%30.30 "Hg5 mi
3:00 PM70 °FSunny.9 mph46%30.27 "Hg10 mi
2:00 PM68 °FSunny.9 mph49%30.30 "Hg10 mi
1:00 PM66 °FSunny.8 mph60%30.33 "Hg10 mi
12:00 PM63 °FSunny.9 mph68%30.33 "Hg10 mi
11:00 AM61 °FScattered clouds.10 mph72%30.36 "Hg5 mi
10:00 AM59 °FBroken clouds.9 mph77%30.39 "Hg3 mi
9:00 AM59 °FFog.9 mph77%30.39 "Hg2 mi
8:00 AM57 °FFog.9 mph82%30.36 "Hg2 mi
7:00 AM57 °FFog.3 mph82%30.33 "Hg2 mi
6:00 AM57 °FFog.7 mph82%30.33 "Hg2 mi
5:00 AM57 °FFog.7 mph82%30.33 "Hg3 mi
4:00 AM57 °FFog.6 mph82%30.33 "Hg3 mi
3:00 AM57 °FFog.7 mph82%30.33 "Hg3 mi
2:00 AM55 °FFog.6 mph88%30.33 "Hg3 mi
1:00 AM55 °FFog.6 mph88%30.33 "Hg2 mi
12:00 AM54 °FFog.7 mph88%30.36 "Hg2 mi
11:02 PM
Fri, Jun 24
54 °FFog.7 mph94%30.36 "Hg2 mi
11:00 PM54 °FFog.8 mph94%30.36 "Hg3 mi
10:00 PM54 °FFog.8 mph94%30.36 "Hg1 mi
Weather by CustomWeather, © 2016

See weather overviewHow to use our weather pages